1386028830084,0.955733
1386028890084,0.956166
1386028950084,0.952166
1386029010084,0.955039
1386029070084,0.954000
1386029130084,0.952654
1386029190084,0.957852
1386029250084,0.948731
1386029310084,0.948540
1386029370084,0.952632
1386029430084,0.948894
1386029490084,0.947848
1386029550084,0.951343
1386029610084,0.953924
1386029670084,0.960354
1386029730084,0.940710
1386029790084,0.945296
1386029850084,0.949466
1386029910084,0.954567
1386029970084,0.949093
1386030030084,0.949986
1386030090084,0.961166
1386030150084,0.952684
1386030210084,0.952017
1386030270084,0.951554
1386030330084,0.953162
1386030390084,0.950366
1386030450084,0.960751
1386030510084,0.953380
1386030570084,0.954680
1386030630084,0.960083
1386030690084,0.950140
1386030750084,0.955778
1386030810084,0.957267
1386030870084,0.948242
1386030930084,0.961478
1386030990084,0.959299
1386031050084,0.953549
1386031110084,0.948159
1386031170084,0.954248
1386031230084,0.953550
1386031290084,0.954405
1386031350084,0.953343
1386031410084,0.951748
1386031470084,0.953138
1386031530084,0.958496
1386031590084,0.956701
1386031650084,0.957045
1386031710084,0.951154
1386031770084,0.947796
1386031830084,0.956371
1386031890084,0.950947
1386031950084,0.953525
1386032010084,0.956654
1386032070084,0.949439
1386032130084,0.954956
1386032190084,0.952811
1386032250084,0.952733
1386032310084,0.957989
1386032370084,0.956317
1386032430095,0.949014
1386032490095,0.947049
1386032550095,0.963454
1386032610095,0.959308
1386032670095,0.954032
1386032730095,0.958078
1386032790095,0.947736
1386032850095,0.954101
1386032910095,0.953778
1386032970095,0.951738
1386033030095,0.961508
1386033090095,0.952085
1386033150095,0.946073
1386033210095,0.949977
1386033270095,0.955204
1386033330095,0.955148
1386033390095,0.957926
1386033450095,0.954083
1386033510095,0.953685
1386033570095,0.957479
1386033630095,0.950400
1386033690095,0.958315
1386033750095,0.952412
1386033810095,0.945053
1386033870095,0.950101
1386033930095,0.953759
1386033990095,0.944176
1386034050095,0.949500
1386034110095,0.950444
1386034170095,0.957467
1386034230095,0.956216
1386034290095,0.953833
1386034350095,0.959327
1386034410095,0.951738
1386034470095,0.953607
1386034530095,0.956850
1386034590095,0.953393
1386034650095,0.954283
1386034710095,0.962457
1386034770095,0.956914
1386034830095,0.952210
1386034890095,0.957063
1386034950095,0.956878
1386035010095,0.957695
1386035070095,0.952308
1386035130095,0.947328
1386035190095,0.954631
1386035250095,0.954773
1386035310095,0.949732
1386035370095,0.961264
1386035430095,0.954018
1386035490095,0.951327
1386035550095,0.956247
1386035610095,0.954532
1386035670095,0.954605
1386035730095,0.952566
1386035790095,0.955315
1386035850095,0.954903
1386035910095,0.952248
1386035970095,0.957874
1386036030105,0.962132
1386036090105,0.954894
1386036150105,0.954865
1386036210105,0.961675
1386036270105,0.962370
1386036330105,0.949598
1386036390105,0.950425
1386036450105,0.959726
1386036510105,0.952410
1386036570105,0.954233
1386036630105,0.954238
1386036690105,0.954815
1386036750105,0.953120
1386036810105,0.964885
1386036870105,0.957456
1386036930105,0.953006
1386036990105,0.958523
1386037050105,0.958046
1386037110105,0.955253
1386037170105,0.961974
1386037230105,0.959111
1386037290105,0.969601
1386037350105,0.956740
1386037410105,0.957186
1386037470105,0.964343
1386037530105,0.962285
1386037590105,0.958117
1386037650105,0.963890
1386037710105,0.965492
1386037770105,0.962801
1386037830105,0.968813
1386037890105,0.963019
1386037950105,0.962505
1386038010105,0.959683
1386038070105,0.965230
1386038130105,0.961409
1386038190105,0.963728
1386038250105,0.961131
1386038310105,0.960735
1386038370105,0.957164
1386038430105,0.965254
1386038490105,0.962643
1386038550105,0.962086
1386038610105,0.964904
1386038670105,0.955707
1386038730105,0.965610
1386038790105,0.957716
1386038850105,0.960523
1386038910105,0.961236
1386038970105,0.955797
1386039030105,0.971002
1386039090105,0.965412
1386039150105,0.954459
1386039210105,0.958695
1386039270105,0.959552
1386039330105,0.964624
1386039390105,0.965130
1386039450105,0.964942
1386039510105,0.957968
1386039570105,0.960701
1386039630115,0.957689
1386039690115,0.965478
1386039750115,0.970284
1386039810115,0.981043
1386039870115,0.969053
1386039930115,0.971933
1386039990115,0.965737
1386040050115,0.962522
1386040110115,0.970287
1386040170115,0.961178
1386040230115,0.959517
1386040290115,0.961973
1386040350115,0.953940
1386040410115,0.962761
1386040470115,0.961116
1386040530115,0.965803
1386040590115,0.952215
1386040650115,0.963379
1386040710115,0.963538
1386040770115,0.959850
1386040830115,0.957769
1386040890115,0.965483
1386040950115,0.961992
1386041010115,0.963287
1386041070115,0.963031
1386041130115,0.957566
1386041190115,0.958422
1386041250115,0.969947
1386041310115,0.958079
1386041370115,0.957761
1386041430115,0.964822
1386041490115,0.956861
1386041550115,0.960209
1386041610115,0.955341
1386041670115,0.961992
1386041730115,0.963559
1386041790115,0.958314
1386041850115,0.961723
1386041910115,0.955869
1386041970115,0.961799
1386042030115,0.954097
1386042090115,0.954735
1386042150115,0.963355
1386042210115,0.965230
1386042270115,0.962119
1386042330115,0.966536
1386042390115,0.961165
1386042450115,0.962123
1386042510115,0.958892
1386042570115,0.959976
1386042630115,0.960882
1386042690115,0.964709
1386042750115,0.960429
1386042810115,0.963083
1386042870115,0.957759
1386042930115,0.963440
1386042990115,0.957704
1386043050115,0.956244
1386043110115,0.964520
1386043170115,0.958367
1386043230125,0.963046
1386043290125,0.959519
1386043350125,0.958937
1386043410125,0.953770
1386043470125,0.954004
1386043530125,0.950555
1386043590125,0.958095
1386043650125,0.949371
1386043710125,0.962019
1386043770125,0.957536
1386043830125,0.953376
1386043890125,0.962882
1386043950125,0.961532
1386044010125,0.959197
1386044070125,0.960006
1386044130125,0.961561
1386044190125,0.961129
1386044250125,0.949103
1386044310125,0.960533
1386044370125,0.963761
1386044430125,0.956586
1386044490125,0.959437
1386044550125,0.953383
1386044610125,0.955480
1386044670125,0.962886
1386044730125,0.962561
1386044790125,0.964054
1386044850125,0.962126
1386044910125,0.959115
1386044970125,0.959799
1386045030125,0.963374
1386045090125,0.961091
1386045150125,0.957568
1386045210125,0.956340
1386045270125,0.961925
1386045330125,0.969307
1386045390125,0.964426
1386045450125,0.952938
1386045510125,0.961662
1386045570125,0.958003
1386045630125,0.963211
1386045690125,0.959927
1386045750125,0.971674
1386045810125,0.953707
1386045870125,0.961612
1386045930125,0.955841
1386045990125,0.961698
1386046050125,0.958027
1386046110125,0.953669
1386046170125,0.956447
1386046230125,0.948909
1386046290125,0.956484
1386046350125,0.962250
1386046410125,0.967682
1386046470125,0.963126
1386046530125,0.967983
1386046590125,0.966227
1386046650125,0.967496
1386046710125,0.968805
1386046770125,0.975090
1386046830135,0.959935
1386046890135,0.961699
1386046950135,0.966408
1386047010135,0.971757
1386047070135,0.972334
1386047130135,0.981647
1386047190135,0.985659
1386047250135,0.978396
1386047310135,0.985838
1386047370135,0.979742
1386047430135,0.978663
1386047490135,0.979936
1386047550135,0.977193
1386047610135,0.979552
1386047670135,0.980023
1386047730135,0.975708
1386047790135,0.969848
1386047850135,0.973168
1386047910135,0.968756
1386047970135,0.968873
1386048030135,0.964867
1386048090135,0.977441
1386048150135,0.978263
1386048210135,0.973450
1386048270135,0.974562
1386048330135,0.975133
1386048390135,0.977773
1386048450135,0.970817
1386048510135,0.969912
1386048570135,0.979074
1386048630135,0.971247
1386048690135,0.972234
1386048750135,0.978287
1386048810135,0.972275
1386048870135,0.984904
1386048930135,0.974036
1386048990135,0.972533
1386049050135,0.976999
1386049110135,0.981103
1386049170135,0.979332
1386049230135,0.980068
1386049290135,0.990751
1386049350135,0.975690
1386049410135,0.972056
1386049470135,0.973045
1386049530135,0.977008
1386049590135,0.982867
1386049650135,0.985101
1386049710135,0.988215
1386049770135,0.979933
1386049830135,0.992426
1386049890135,0.985382
1386049950135,0.990170
1386050010135,0.995901
1386050070135,0.988346
1386050130135,0.982598
1386050190135,0.993819
1386050250135,0.999339
1386050310135,0.987313
1386050370135,0.997422
1386050430145,0.990138
1386050490145,0.989534
1386050550145,0.992370
1386050610145,0.993524
1386050670145,0.990861
1386050730145,0.993752
1386050790145,0.990006
1386050850145,0.985234
1386050910145,0.990386
1386050970145,0.992062
1386051030145,0.994853
1386051090145,0.995178
1386051150145,0.994781
1386051210145,1.00121
1386051270145,0.998894
1386051330145,0.993015
1386051390145,0.998207
1386051450145,0.994887
1386051510145,0.994389
1386051570145,0.995746
1386051630145,0.991101
1386051690145,0.995904
1386051750145,0.989980
1386051810145,0.992850
1386051870145,1.00353
1386051930145,0.995903
1386051990145,0.996016
1386052050145,0.998191
1386052110145,0.996697
1386052170145,1.00018
1386052230145,0.997982
1386052290145,0.994760
1386052350145,1.00014
1386052410145,1.00343
1386052470145,1.00503
1386052530145,0.998502
1386052590145,0.998431
1386052650145,0.996124
1386052710145,0.997148
1386052770145,0.996511
1386052830145,0.998385
1386052890145,1.00737
1386052950145,0.994629
1386053010145,1.00024
1386053070145,0.993439
1386053130145,0.999442
1386053190145,0.994434
1386053250145,1.00670
1386053310145,1.00352
1386053370145,0.995068
1386053430145,1.00421
1386053490145,1.00684
1386053550145,1.00529
1386053610145,1.00199
1386053670145,1.00193
1386053730145,1.00387
1386053790145,1.00591
1386053850145,1.00530
1386053910145,1.00547
1386053970145,0.996884
1386054030156,0.995616
1386054090156,1.00276
1386054150156,0.998870
1386054210156,1.00227
1386054270156,0.995514
1386054330156,0.994686
1386054390156,1.00534
1386054450156,0.995190
1386054510156,0.995319
1386054570156,0.996459
1386054630156,1.00247
1386054690156,1.00263
1386054750156,0.992911
1386054810156,0.998963
1386054870156,0.990184
1386054930156,1.00345
1386054990156,1.00132
1386055050156,1.00054
1386055110156,0.996295
1386055170156,1.00315
1386055230156,1.00178
1386055290156,1.00322
1386055350156,0.993885
1386055410156,1.00411
1386055470156,0.999909
1386055530156,0.999982
1386055590156,1.00066
1386055650156,0.990222
1386055710156,0.993267
1386055770156,0.995580
1386055830156,0.996403
1386055890156,0.990824
1386055950156,0.992323
1386056010156,0.998936
1386056070156,0.991850
1386056130156,1.00251
1386056190156,0.997639
1386056250156,1.00017
1386056310156,0.997013
1386056370156,0.985865
1386056430156,0.991955
1386056490156,1.00144
1386056550156,0.994718
1386056610156,0.994809
1386056670156,0.991072
1386056730156,1.00294
1386056790156,0.994864
1386056850156,0.992026
1386056910156,0.993412
1386056970156,0.997400
1386057030156,0.993914
1386057090156,0.984638
1386057150156,0.993089
1386057210156,0.983042
1386057270156,0.989460
1386057330156,0.985256
1386057390156,0.980618
1386057450156,0.985226
1386057510156,0.993815
1386057570156,0.991554
1386057630167,0.986327
1386057690167,0.981426
1386057750167,0.981659
1386057810167,0.988314
1386057870167,0.983267
1386057930167,0.985082
1386057990167,0.974330
1386058050167,0.981003
1386058110167,0.983991
1386058170167,0.978277
1386058230167,0.983564
1386058290167,0.970292
1386058350167,0.974166
1386058410167,0.975334
1386058470167,0.978651
1386058530167,0.970916
1386058590167,0.973547
1386058650167,0.975257
1386058710167,0.974435
1386058770167,0.976882
1386058830167,0.970160
1386058890167,0.975846
1386058950167,0.970680
1386059010167,0.971994
1386059070167,0.973439
1386059130167,0.969950
1386059190167,0.976703
1386059250167,0.980593
1386059310167,0.971833
1386059370167,0.970951
1386059430167,0.974334
1386059490167,0.968422
1386059550167,0.966904
1386059610167,0.973118
1386059670167,0.970515
1386059730167,0.958453
1386059790167,0.966702
1386059850167,0.968953
1386059910167,0.965039
1386059970167,0.966882
1386060030167,0.972604
1386060090167,0.969937
1386060150167,0.971498
1386060210167,0.966919
1386060270167,0.972783
1386060330167,0.969833
1386060390167,0.973806
1386060450167,0.971181
1386060510167,0.968510
1386060570167,0.964662
1386060630167,0.966674
1386060690167,0.967274
1386060750167,0.966978
1386060810167,0.973766
1386060870167,0.964695
1386060930167,0.969520
1386060990167,0.970066
1386061050167,0.966725
1386061110167,0.961350
1386061170167,0.968214
1386061230178,0.974134
1386061290178,0.972148
1386061350178,0.961819
1386061410178,0.969347
1386061470178,0.967761
1386061530178,0.963559
1386061590178,0.967754
1386061650178,0.970655
1386061710178,0.966676
1386061770178,0.964957
1386061830178,0.964842
1386061890178,0.966321
1386061950178,0.966028
1386062010178,0.961124
1386062070178,0.962013
1386062130178,0.968833
1386062190178,0.968038
1386062250178,0.966541
1386062310178,0.964779
1386062370178,0.966592
1386062430178,0.967738
1386062490178,0.970670
1386062550178,0.968431
1386062610178,0.967862
1386062670178,0.972202
1386062730178,0.966822
1386062790178,0.966658
1386062850178,0.969509
1386062910178,0.970764
1386062970178,0.964400
1386063030178,0.968632
1386063090178,0.966809
1386063150178,0.970515
1386063210178,0.960262
1386063270178,0.968652
1386063330178,0.969496
1386063390178,0.967213
1386063450178,0.960374
1386063510178,0.976530
1386063570178,0.972258
1386063630178,0.970164
1386063690178,0.970177
1386063750178,0.975465
1386063810178,0.968653
1386063870178,0.976844
1386063930178,0.981062
1386063990178,0.975380
1386064050178,0.974041
1386064110178,0.971863
1386064170178,0.976340
1386064230178,0.974506
1386064290178,0.976421
1386064350178,0.974140
1386064410178,0.970182
1386064470178,0.977934
1386064530178,0.972677
1386064590178,0.974909
1386064650178,0.969624
1386064710178,0.973106
1386064770178,0.972793
1386064830189,0.970222
1386064890189,0.974973
1386064950189,0.970588
1386065010189,0.972510
1386065070189,0.979757
1386065130189,0.968595
1386065190189,0.972052
1386065250189,0.961053
1386065310189,0.968080
1386065370189,0.967218
1386065430189,0.964986
1386065490189,0.969779
1386065550189,0.972505
1386065610189,0.973160
1386065670189,0.968501
1386065730189,0.965369
1386065790189,0.967602
1386065850189,0.978672
1386065910189,0.969943
1386065970189,0.962079
1386066030189,0.968915
1386066090189,0.968253
1386066150189,0.969218
1386066210189,0.964481
1386066270189,0.964189
1386066330189,0.965877
1386066390189,0.969504
1386066450189,0.971229
1386066510189,0.966575
1386066570189,0.971405
1386066630189,0.966850
1386066690189,0.966464
1386066750189,0.969727
1386066810189,0.968817
1386066870189,0.965119
1386066930189,0.960302
1386066990189,0.968588
1386067050189,0.965317
1386067110189,0.966091
1386067170189,0.964241
1386067230189,0.958751
1386067290189,0.972678
1386067350189,0.963862
1386067410189,0.961860
1386067470189,0.965447
1386067530189,0.964291
1386067590189,0.957927
1386067650189,0.970989
1386067710189,0.965101
1386067770189,0.969166
1386067830189,0.963790
1386067890189,0.963892
1386067950189,0.973506
1386068010189,0.969259
1386068070189,0.971089
1386068130189,0.965547
1386068190189,0.965913
1386068250189,0.974644
1386068310189,0.967495
1386068370189,0.967970
1386068430201,0.966695
1386068490201,0.964303
1386068550201,0.966895
1386068610201,0.968091
1386068670201,0.966781
1386068730201,0.972263
1386068790201,0.968318
1386068850201,0.963873
1386068910201,0.968780
1386068970201,0.968706
1386069030201,0.971925
1386069090201,0.973303
1386069150201,0.968580
1386069210201,0.975049
1386069270201,0.968619
1386069330201,0.972549
1386069390201,0.962433
1386069450201,0.975309
1386069510201,0.976870
1386069570201,0.973998
1386069630201,0.969905
1386069690201,0.970076
1386069750201,0.971227
1386069810201,0.973001
1386069870201,0.970534
1386069930201,0.973689
1386069990201,0.975180
1386070050201,0.963120
1386070110201,0.968991
1386070170201,0.973566
1386070230201,0.977643
1386070290201,0.972654
1386070350201,0.978442
1386070410201,0.982589
1386070470201,0.984548
1386070530201,0.981254
1386070590201,0.979958
1386070650201,0.975902
1386070710201,0.982914
1386070770201,0.975227
1386070830201,0.976302
1386070890201,0.978025
1386070950201,0.979834
1386071010201,0.972152
1386071070201,0.967657
1386071130201,0.973571
1386071190201,0.980463
1386071250201,0.981878
1386071310201,0.977508
1386071370201,0.980285
1386071430201,0.970411
1386071490201,0.975261
1386071550201,0.972250
1386071610201,0.966596
1386071670201,0.975618
1386071730201,0.969912
1386071790201,0.973672
1386071850201,0.966819
1386071910201,0.964029
1386071970201,0.972803
1386072030213,0.971050
1386072090213,0.974153
1386072150213,0.977481
1386072210213,0.969954
1386072270213,0.974457
1386072330213,0.967446
1386072390213,0.975807
1386072450213,0.972455
1386072510213,0.975202
1386072570213,0.974657
1386072630213,0.970435
1386072690213,0.967429
1386072750213,0.965924
1386072810213,0.978308
1386072870213,0.964036
1386072930213,0.970537
1386072990213,0.971646
1386073050213,0.974015
1386073110213,0.974887
1386073170213,0.970227
1386073230213,0.963289
1386073290213,0.970837
1386073350213,0.972212
1386073410213,0.965736
1386073470213,0.967497
1386073530213,0.975102
1386073590213,0.978633
1386073650213,0.971782
1386073710213,0.974659
1386073770213,0.973496
1386073830213,0.975767
1386073890213,0.971454
1386073950213,0.977732
1386074010213,0.976213
1386074070213,0.962035
1386074130213,0.977103
1386074190213,0.975696
1386074250213,0.976218
1386074310213,0.981331
1386074370213,0.979920
1386074430213,0.975364
1386074490213,0.974752
1386074550213,0.971814
1386074610213,0.980305
1386074670213,0.977416
1386074730213,0.974248
1386074790213,0.972794
1386074850213,0.970290
1386074910213,0.971120
1386074970213,0.968668
1386075030213,0.971640
1386075090213,0.980392
1386075150213,0.981005
1386075210213,0.973686
1386075270213,0.978240
1386075330213,0.967911
1386075390213,0.965312
1386075450213,0.971510
1386075510213,0.970234
1386075570213,0.974838
1386075630224,0.969511
1386075690224,0.969265
1386075750224,0.974907
1386075810224,0.978916
1386075870224,0.975998
1386075930224,0.967674
1386075990224,0.971080
1386076050224,0.974463
1386076110224,0.974288
1386076170224,0.975645
1386076230224,0.977800
1386076290224,0.980388
1386076350224,0.991004
1386076410224,0.989688
1386076470224,0.987965
1386076530224,0.975631
1386076590224,0.977764
1386076650224,0.967087
1386076710224,0.969561
1386076770224,0.970666
1386076830224,0.971708
1386076890224,0.973886
1386076950224,0.979487
1386077010224,0.971831
1386077070224,0.970877
1386077130224,0.972529
1386077190224,0.974193
1386077250224,0.980580
1386077310224,0.969055
1386077370224,0.970557
1386077430224,0.967191
1386077490224,0.974792
1386077550224,0.969127
1386077610224,0.973663
1386077670224,0.981739
1386077730224,0.979522
1386077790224,0.975146
1386077850224,0.976032
1386077910224,0.973733
1386077970224,0.981336
1386078030224,0.976160
1386078090224,0.973972
1386078150224,0.970820
1386078210224,0.975164
1386078270224,0.977355
1386078330224,0.975704
1386078390224,0.968124
1386078450224,0.977036
1386078510224,0.978455
1386078570224,0.983328
1386078630224,0.980214
1386078690224,0.979199
1386078750224,0.979633
1386078810224,0.988927
1386078870224,0.981553
1386078930224,0.976313
1386078990224,0.973481
1386079050224,0.976403
1386079110224,0.970738
1386079170224,0.971034
1386079230227,0.974902
1386079290227,0.970911
1386079350227,0.981695
1386079410227,0.979203
1386079470227,0.985572
1386079530227,0.981683
1386079590227,0.985678
1386079650227,0.979591
1386079710227,0.982445
1386079770227,0.975944
1386079830227,0.980775
1386079890227,0.985707
1386079950227,0.983010
1386080010227,0.979305
1386080070227,0.980744
1386080130227,0.982516
1386080190227,0.975924
1386080250227,0.985370
1386080310227,0.988033
1386080370227,0.977091
1386080430227,0.987882
1386080490227,0.989993
1386080550227,0.985750
1386080610227,0.986453
1386080670227,0.984328
1386080730227,0.978034
1386080790227,0.984134
1386080850227,0.986780
1386080910227,0.986810
1386080970227,0.985228
1386081030227,0.980175
1386081090227,0.990773
1386081150227,0.990291
1386081210227,0.987920
1386081270227,0.980582
1386081330227,0.990906
1386081390227,0.981024
1386081450227,0.984694
1386081510227,0.987391
1386081570227,0.989506
1386081630227,0.991543
1386081690227,0.990867
1386081750227,0.997495
1386081810227,0.994446
1386081870227,0.999055
1386081930227,0.995745
1386081990227,0.991490
1386082050227,1.00598
1386082110227,1.01324
1386082170227,1.01110
1386082230227,1.00746
1386082290227,1.00950
1386082350227,1.01950
1386082410227,1.01326
1386082470227,1.01891
1386082530227,1.01605
1386082590227,1.01938
1386082650227,1.02481
1386082710227,1.02395
1386082770227,1.02164
1386082830238,1.02057
1386082890238,1.02122
1386082950238,1.01325
1386083010238,1.03204
1386083070238,1.01847
1386083130238,1.01990
1386083190238,1.01060
1386083250238,1.02395
1386083310238,1.02135
1386083370238,1.02804
1386083430238,1.01889
1386083490238,1.02176
1386084030238,1.02826
1386084090238,1.02945
1386084150238,1.02764
1386084210238,1.02928
1386084270238,1.02876
1386084330238,1.03204
1386084390238,1.02650
1386084450238,1.02520
1386084510238,1.02774
1386084570238,1.03368
1386084630238,1.03498
1386084690238,1.03077
1386084750238,1.03585
1386084810238,1.02741
1386084870238,1.02773
1386084930238,1.02822
1386084990238,1.03106
1386085050238,1.02918
1386085110238,1.03246
1386085170238,1.02645
1386085230238,1.02573
1386085290238,1.02559
1386085350238,1.02667
1386085410238,1.02347
1386085470238,1.02779
1386085530238,1.01774
1386085590238,1.01807
1386085650238,1.01684
1386085710238,1.01394
1386085770238,1.02296
1386085830238,1.01941
1386085890238,1.02403
1386085950238,1.02599
1386086010238,1.03214
1386086070238,1.03026
1386086130238,1.02493
1386086190238,1.02319
1386086250238,1.01876
1386086310238,1.02388
1386086370238,1.02352
1386086430249,1.02148
1386086490249,1.02515
1386086550249,1.02132
1386086610249,1.01879
1386086670249,1.02292
1386086730249,1.01221
1386086790249,1.02064
1386086850249,1.01326
1386086910249,1.01093
1386086970249,1.01946
1386087030249,1.00787
1386087090249,1.02268
1386087150249,1.02383
1386087210249,1.01357
1386087270249,1.01765
1386087330249,1.01582
1386087390249,1.02029
1386087450249,1.01393
1386087510249,1.01621
1386087570249,1.01357
1386087630249,1.02319
1386087690249,1.00605
1386087750249,1.01001
1386087810249,1.00891
1386087870249,1.01589
1386087930249,1.00978
1386087990249,1.01583
1386088050249,1.01112
1386088110249,1.00646
1386088170249,1.01100
1386088230249,1.00948
1386088290249,1.01066
1386088350249,1.01219
1386088410249,1.00516
1386088470249,1.01640
1386088530249,1.00854
1386088590249,1.00897
1386088650249,1.01211
1386088710249,1.00056
1386088770249,1.00654
1386088830249,1.00005
1386088890249,1.00842
1386088950249,1.00928
1386089010249,1.01264
1386089070249,1.00352
1386089130249,1.01646
1386089190249,1.00899
1386089250249,1.01200
1386089310249,1.00198
1386089370249,1.00921
1386089430249,1.00887
1386089490249,1.00783
1386089550249,1.01214
1386089610249,1.01299
1386089670249,0.997639
1386089730249,1.00648
1386089790249,1.00444
1386089850249,1.01197
1386089910249,1.00977
1386089970249,1.01216
1386090030260,1.00864
1386090090260,1.00863
1386090150260,1.00657
1386090210260,1.00004
1386090270260,1.00741
1386090330260,0.997297
1386090390260,1.00348
1386090450260,1.00804
1386090510260,1.00225
1386090570260,1.00183
1386090630260,1.00841
1386090690260,0.998420
1386090750260,1.00331
1386090810260,1.00125
1386090870260,0.998679
1386090930260,1.00586
1386090990260,0.997689
1386091050260,0.997747
1386091110260,1.00173
1386091170260,0.997512
1386091230260,0.993940
1386091290260,0.994137
1386091350260,0.993080
1386091410260,0.994510
1386091470260,1.00054
1386091530260,0.995964
1386091590260,0.993423
1386091650260,0.994308
1386091710260,0.984428
1386091770260,1.00333
1386091830260,0.993280
1386091890260,0.992945
1386091950260,0.986408
1386092010260,0.988213
1386092070260,0.995172
1386092130260,0.990505
1386092190260,0.994763
1386092250260,0.990665
1386092310260,0.983955